SCP
-0 -0 -0 -0 -0 -0 -0 -0 -0 -0 -0 -0 -0 -0 -0 -0 -0 -0 -0 -0 -0 -0 -0 -0 -0 -0 -0 -0 -0 -0 -0 -0 -0 -0 -0 -0 -0 -0 -0 -0 0 -0 -0
-0 -0 -0 -0 -0 -0 -0 -0 -0 -0 -0 -0 -0 -0 -0 -0 -0 -0 -0 -0 -0 -0 -0 -0 -0 -0 -0 -0 -0 -0 -0 0 0 -0 -0 0 0 0 0 -0 -0 -0 -0
-0 -0 -0 -0 -0 -0 -0 -0 -0 -0 -0 -0 -0 -0 -0 -0 -0 -0 -0 -0 -0 -0 -0 -0 -0 -0 -0 -0 -0 -0 -0 -0 0 -0 0 0 -0 0 0 0 0 0 0
-0 -0 0 -0 -0 -0 -0 -0 -0 -0 -0 -0 -0 -0 -0 -0 -0 -0 -0 -0 -0 -0 -0 -0 -0 -0 -0 -0 -0 -0 -0 -0 -0 -0 0 -0 -0 0 0 0 0 0 -0
-0 -0 -0 -0 -0 -0 -0 -0 -0 -0 -0 -0 -0 -0 -0 -0 -0 -0 -0 -0 -0 -0 -0 -0 -0 -0 -0 -0 -0 -0 -0 -0 -0 -0 0 0 0 0 0 0 0 -0 0
-0 -0 -0 -0 -0 -0 -0 -0 -0 -0 -0 -0 -0 -0 -0 -0 -0 -0 -0 -0 -0 -0 -0 -0 -0 -0 -0 -0 -0 -0 -0 -0 0 -0 -0 0 0 -0 -0 0 0 0 0
-0 -0 -0 -0 -0 -0 -0 -0 -0 -0 -0 -0 -0 -0 -0 -0 -0 -0 -0 -0 -0 -0 -0 -0 -0 0 0 0 -0 -0 0 -0 -0 -0 -0 0 0 0 0 0 0 0 0
-0 -0 -0 -0 -0 -0 -0 -0 -0 -0 -0 -0 -0 -0 0 0 0 -0 -0 0 0 0 0 0 0 0 0 -0 -0 -0 -0 0 -0 0 0 0 0 0 0 0 0 0 0
-0 -0 0 -0 0 -0 -0 0 -0 -0 -0 -0 -0 -0 -0 0 0 0 0 0 0 0 0 0 0 0 0 -0 -0 -0 -0 -0 -0 0 0 0 0 0 0 0 0 0 0
-0 -0 0 0 -0 0 0 -0 -0 -0 -0 -0 0 0 0 0 0 0 0 -0 0 0 0 0 0 0 -0 -0 -0 -0 0 0 0 0 0 0 0 0 0 0 0 0 0
0 0 0 0 -0 -0 -0 0 0 0 0 0 0 0 0 0 0 0 0 0 0 0 0 0 0 0 0 -0 -0 0 0 0 0 0 0 0 0 0 0 0 0 0 0
0 0 0 0 0 0 -0 0 0 0 0 0 0 0 0 0 0 0 0 0 0 0 0 0 0 0 0 0 0 0 0 0 0 0 0 0 0 0 0 0 0 0 0
-0 -0 -0 -0 0 0 -0 0 0 0 0 0 0 0 0 0 0 0 0 0 0 0 0 0 0 0 0 0 0 0 0 0 0 0 0 0 0 0 0 0 0 0 0
-0 0 0 -0 0 0 0 0 0 0 0 0 0 0 0 0 0 0 0 0 0 0 0 0 0 0 0 0 0 0 0 0 0 0 0 0 0 0 0 0 0 0 0
0 0 0 0 0 0 0 0 0 0 0 0 0 0 0 0 0 0 0 0 0 0 0 0 0 0 0 0 0 0 0 0 0 0 0 0 0 0 0 0 0 0 0
-0 0 0 0 0 0 0 0 0 0 0 0 0 0 0 0 0 0 0 0 0 0 0 0 0 0 0 0 0 0 0 0 0 0 0 0 0 0 0 0 0 0 0
0 0 0 0 0 0 0 0 0 0 0 0 0 0 0 0 0 0 0 0 0 0 0 0 0 0 0 0 0 0 0 0 0 0 0 0 0 0 0 0 0 0 0
0 0 0 0 0 0 0 0 0 0 0 0 0 0 0 0 0 0 0 0 0 0 0 0 0 0 0 0 0 0 0 0 0 0 0 0 0 0 0 0 0 0 0
0 0 0 0 0 0 0 0 0 0 0 0 0 0 0 0 0 0 0 0 0 0 0 0 0 0 0 0 0 0 0 0 0 0 0 0 0 0 0 0 0 0 0
0 0 0 0 0 0 0 0 0 0 0 0 0 0 0 0 0 0 0 0 0 0 0 0 0 0 0 0 0 0 0 0 0 0 0 0 0 0 0 0 0 0 0
0 0 0 0 0 0 0 0 0 0 0 0 0 0 0 0 0 0 0 0 0 0 0 0 0 0 0 0 0 0 0 0 0 0 0 0 0 0 0 0 0 0 0
0 0 0 0 0 0 0 0 0 0 0 0 0 0 0 0 0 0 0 0 0 0 0 0 0 0 0 0 0 0 0 0 0 0 0 0 0 0 0 0 0 0 0
0 0 0 0 0 0 0 0 0 0 0 0 0 0 0 0 0 0 0 0 0 0 0 0 0 0 0 0 0 0 0 0 0 0 0 0 0 0 0 0 0 0 0
0 0 0 0 0 0 0 0 0 0 0 0 0 0 0 0 0 0 0 0 0 0 0 0 0 0 0 0 0 0 0 0 0 0 0 0 0 0 0 0 0 0 0
0 0 0 0 0 0 0 0 0 0 0 0 0 0 0 0 0 0 0 0 0 0 0 0 0 0 0 0 0 0 0 0 0 0 0 0 0 0 0 0 0 0 0
0 0 0 0 0 0 0 0 0 0 0 0 0 0 0 0 0 0 0 0 0 0 0 0 0 0 0 0 0 0 0 0 0 0 0 0 0 0 0 0 0 0 0
Wind_Speed_500mb
31 28 26 22 27 27 31 41 32 29 29 27 24 21 22 23 29 35 35 27 18 15 18 20 19 22 24 26 27 28 29 29 33 35 30 25 26 27 22 20 21 14 15
35 31 28 26 29 30 30 36 29 25 22 20 18 15 14 20 22 20 18 15 12 13 14 14 16 19 21 23 24 26 27 27 29 31 32 26 25 26 20 17 19 21 13
35 34 28 29 31 30 30 28 25 19 18 17 15 12 12 14 14 14 13 11 9 10 12 9 13 16 18 20 20 23 23 23 25 30 30 27 25 26 23 22 19 20 20
35 36 28 29 31 31 26 22 21 17 16 14 12 11 12 16 16 12 7 3 2 5 8 8 13 16 16 18 19 19 20 15 20 23 24 25 25 24 22 22 22 21 19
36 35 29 27 28 30 25 18 18 15 15 13 11 13 14 18 16 16 11 9 8 3 6 8 11 17 20 19 18 16 14 14 16 18 18 23 21 22 21 20 19 18 17
36 34 28 26 25 29 27 18 13 13 13 14 15 13 14 15 14 12 7 1 4 4 3 6 10 12 15 17 16 12 9 9 11 14 16 18 19 17 16 17 17 18 19
37 33 29 27 25 24 21 18 16 16 17 16 16 15 13 11 8 7 8 8 11 9 9 8 8 9 10 11 11 9 5 5 6 10 13 14 14 15 14 12 12 14 18
32 31 27 26 23 21 18 18 20 18 17 17 15 14 13 10 8 6 5 6 7 8 8 10 11 11 10 10 8 6 2 2 2 7 9 10 12 15 14 12 12 12 13
24 26 25 24 25 21 17 17 18 16 16 16 15 13 12 10 8 7 7 7 7 9 9 9 10 9 8 8 7 6 4 1 3 8 7 8 11 13 13 14 13 12 11
22 24 23 23 23 22 18 14 13 14 15 14 12 8 6 5 3 3 4 5 7 6 7 7 7 6 6 5 4 4 3 2 3 4 7 8 12 12 12 13 13 13 13
23 26 24 23 22 21 19 14 11 9 9 7 5 4 2 1 3 2 3 2 5 7 7 8 8 9 8 7 10 4 2 4 6 6 6 8 11 13 13 13 12 12 13
25 31 28 27 25 22 19 16 13 10 7 6 5 6 4 3 3 5 8 9 9 11 12 12 12 12 10 10 9 11 12 12 13 15 14 14 14 16 12 11 10 10 10
22 25 27 29 27 25 23 19 15 11 8 5 3 2 2 7 10 10 11 13 13 15 13 14 16 15 14 14 16 16 18 18 21 19 22 20 19 18 15 12 12 13 10
26 26 26 25 28 27 23 17 13 12 11 7 4 2 6 10 12 13 15 18 19 15 18 18 20 19 19 19 20 17 20 25 26 28 29 27 24 23 16 16 16 19 17
32 29 24 23 24 23 18 16 15 13 10 7 5 5 6 9 13 16 15 17 18 22 22 19 21 20 23 23 24 20 20 19 26 25 28 10 14 19 18 18 21 20 27
33 31 28 29 25 27 24 21 18 18 15 14 12 10 11 12 15 17 19 21 22 23 23 24 27 28 30 31 32 27 26 26 23 26 27 21 21 22 24 25 27 23 27
35 32 33 28 27 29 27 24 23 21 22 19 18 17 17 18 19 20 21 23 26 27 29 31 31 33 35 36 35 34 34 32 33 33 32 32 33 34 31 30 32 30 28
36 39 34 32 29 30 30 30 27 28 28 26 26 27 26 25 27 27 29 28 26 30 33 36 35 32 35 37 41 42 42 36 36 35 29 35 38 36 37 39 40 36 29
38 33 40 36 34 32 32 33 32 32 34 35 35 37 36 36 36 38 37 36 34 36 39 41 39 41 45 47 46 44 40 39 33 26 29 32 34 37 39 38 30 24 26
34 35 35 33 36 33 30 31 35 39 41 41 45 46 47 46 46 49 49 47 45 46 45 46 47 46 50 52 51 44 41 37 37 29 34 42 40 35 28 35 22 24 22
38 37 37 37 34 32 37 37 39 45 49 52 52 53 55 57 58 59 60 59 56 55 51 49 49 52 53 52 51 49 41 42 39 36 38 42 44 32 32 29 24 22 23
36 34 37 42 42 40 41 42 43 48 53 55 54 58 62 66 68 68 71 69 65 64 59 55 53 55 58 53 50 50 41 36 35 32 36 41 41 35 26 28 24 27 27
43 44 46 44 41 39 38 44 50 53 60 65 64 65 66 67 69 72 69 69 66 67 66 62 58 57 59 51 53 51 19 24 32 33 38 39 37 32 32 29 28 27 29
37 36 34 34 33 36 41 46 50 54 62 65 64 64 64 64 65 64 63 65 67 67 70 67 60 60 58 57 59 63 67 46 26 28 42 42 48 36 37 38 32 33 34
12 15 21 26 30 35 40 44 50 55 61 59 60 61 64 67 69 69 70 69 66 64 66 66 63 62 61 58 69 70 72 63 61 41 40 51 47 48 46 44 44 45 44
8 4 1 5 11 16 21 26 33 40 44 47 50 56 61 66 65 62 62 62 62 65 67 67 63 61 63 73 66 70 70 70 67 67 51 52 57 57 58 54 55 50 48
Wind_Direction_500mb
171 161 154 144 137 127 133 138 131 123 118 119 109 98 97 106 99 99 100 107 98 72 50 48 50 54 60 70 77 78 76 78 73 67 59 68 71 70 95 91 75 89 102
161 158 149 144 140 140 134 147 140 134 136 136 133 120 113 121 110 111 112 105 80 59 40 34 44 59 65 72 76 75 68 64 68 64 57 56 66 70 74 80 83 72 90
159 154 147 145 145 141 143 151 155 145 145 144 146 142 140 141 129 120 112 96 68 42 27 43 38 55 71 77 81 80 69 56 62 59 55 54 58 59 64 68 73 65 64
154 151 142 142 148 152 147 151 158 159 150 146 137 137 144 160 163 160 151 137 22 360 7 38 51 51 81 88 96 92 92 62 51 55 47 50 50 55 57 61 57 54 52
156 152 143 138 148 151 144 150 148 148 147 141 140 138 140 150 164 181 204 245 256 291 21 39 57 66 76 85 96 90 74 81 58 50 43 46 45 50 53 55 54 50 45
158 156 148 141 142 154 155 163 156 147 140 129 121 126 131 142 148 159 165 124 96 156 57 40 65 73 68 76 84 86 70 61 39 43 34 34 35 36 42 48 55 53 45
158 159 158 152 141 146 152 148 144 138 131 122 112 110 118 131 135 135 131 93 87 94 82 65 58 64 58 62 72 77 88 54 15 22 33 23 22 20 18 18 24 32 34
156 158 162 159 151 151 151 142 140 139 133 125 115 105 99 99 100 94 84 61 50 52 57 64 66 65 65 65 69 82 117 291 336 352 7 14 8 2 358 1 360 6 14
161 164 165 164 162 161 151 154 155 150 147 132 121 104 95 83 73 63 54 45 35 31 36 44 52 52 53 54 54 53 51 318 297 332 349 2 357 349 343 338 341 345 345
171 176 172 169 169 168 161 153 134 127 118 124 121 116 107 104 92 57 39 34 29 22 7 6 12 8 1 350 346 29 80 70 339 319 346 357 356 343 328 325 325 328 330
179 185 179 173 170 169 168 168 165 159 150 152 154 161 169 226 243 312 229 286 317 309 306 309 313 307 306 308 307 225 253 272 331 297 333 334 330 329 314 313 316 319 320
189 190 185 179 173 173 175 173 178 188 199 210 230 231 214 216 284 268 280 277 277 283 279 280 281 283 297 297 298 303 293 295 304 297 294 291 303 312 307 312 323 331 334
198 194 184 185 184 187 184 183 185 196 212 221 228 174 324 332 343 320 307 291 280 288 279 271 274 280 277 285 294 286 290 291 292 285 277 276 280 286 287 300 310 316 313
194 190 192 195 197 192 183 176 179 186 181 176 152 31 346 337 335 336 339 331 324 295 272 282 275 266 272 270 282 286 284 284 275 277 275 273 273 274 288 279 285 285 296
203 199 199 200 201 202 194 196 199 201 200 213 242 273 304 317 315 313 319 318 312 323 331 323 307 289 286 293 304 296 300 297 284 279 271 274 260 269 274 280 279 288 283
207 207 209 208 206 211 211 207 217 222 223 231 242 256 272 289 297 302 303 306 308 309 312 309 294 267 268 274 278 283 286 279 290 289 289 274 278 272 266 270 282 282 287
210 214 214 214 215 222 226 227 231 237 240 245 255 261 272 279 282 288 293 298 301 298 297 292 289 275 269 269 272 276 281 277 272 271 274 272 269 268 270 270 274 272 272
218 222 220 221 224 228 234 237 240 244 253 258 259 263 270 274 275 276 280 287 292 287 285 282 282 275 276 277 280 278 279 273 278 271 272 265 266 265 269 267 267 269 268
217 224 225 228 236 240 240 244 250 253 259 262 264 267 271 273 273 273 277 282 282 284 284 282 273 271 275 279 281 281 264 270 287 278 260 263 264 263 270 264 265 259 257
224 231 239 238 244 248 252 256 258 259 261 263 266 270 273 273 274 275 278 279 278 280 284 281 277 269 267 273 276 273 266 277 281 261 261 255 261 260 255 275 258 254 261
227 233 244 248 251 253 259 263 267 271 275 273 273 275 276 278 279 277 278 277 275 275 282 281 275 270 266 270 273 273 263 268 262 256 251 248 256 246 253 256 248 255 260
232 239 244 249 251 254 259 272 274 277 279 278 277 276 275 276 278 278 277 276 274 273 275 279 275 269 264 261 267 267 261 266 255 240 247 243 245 248 247 254 256 261 266
220 228 233 235 239 247 255 259 263 267 273 279 283 286 282 279 279 278 278 276 275 274 275 278 277 269 264 261 258 254 230 237 226 232 238 241 249 238 252 247 258 259 262
228 230 233 241 246 252 259 266 271 275 277 282 286 284 281 278 279 279 277 278 281 279 277 277 276 271 262 257 256 251 245 249 229 214 230 230 230 225 238 252 250 256 257
181 206 228 242 253 259 265 271 276 281 283 288 289 288 289 287 285 284 282 283 282 281 279 276 275 272 263 260 254 250 249 244 245 239 222 227 227 229 235 244 248 246 251
100 100 279 282 276 280 285 290 291 292 294 293 294 291 290 287 286 285 286 286 285 288 284 277 275 272 267 265 258 257 250 248 250 245 238 244 244 249 249 246 247 245 247
Wind_Speed_850mb
31 28 26 22 27 27 31 41 32 29 29 27 24 21 22 23 29 35 35 27 18 15 18 20 19 22 24 26 27 28 29 29 33 35 30 25 26 27 22 20 21 14 15
35 31 28 26 29 30 30 36 29 25 22 20 18 15 14 20 22 20 18 15 12 13 14 14 16 19 21 23 24 26 27 27 29 31 32 26 25 26 20 17 19 21 13
35 34 28 29 31 30 30 28 25 19 18 17 15 12 12 14 14 14 13 11 9 10 12 9 13 16 18 20 20 23 23 23 25 30 30 27 25 26 23 22 19 20 20
35 36 28 29 31 31 26 22 21 17 16 14 12 11 12 16 16 12 7 3 2 5 8 8 13 16 16 18 19 19 20 15 20 23 24 25 25 24 22 22 22 21 19
36 35 29 27 28 30 25 18 18 15 15 13 11 13 14 18 16 16 11 9 8 3 6 8 11 17 20 19 18 16 14 14 16 18 18 23 21 22 21 20 19 18 17
36 34 28 26 25 29 27 18 13 13 13 14 15 13 14 15 14 12 7 1 4 4 3 6 10 12 15 17 16 12 9 9 11 14 16 18 19 17 16 17 17 18 19
37 33 29 27 25 24 21 18 16 16 17 16 16 15 13 11 8 7 8 8 11 9 9 8 8 9 10 11 11 9 5 5 6 10 13 14 14 15 14 12 12 14 18
32 31 27 26 23 21 18 18 20 18 17 17 15 14 13 10 8 6 5 6 7 8 8 10 11 11 10 10 8 6 2 2 2 7 9 10 12 15 14 12 12 12 13
24 26 25 24 25 21 17 17 18 16 16 16 15 13 12 10 8 7 7 7 7 9 9 9 10 9 8 8 7 6 4 1 3 8 7 8 11 13 13 14 13 12 11
22 24 23 23 23 22 18 14 13 14 15 14 12 8 6 5 3 3 4 5 7 6 7 7 7 6 6 5 4 4 3 2 3 4 7 8 12 12 12 13 13 13 13
23 26 24 23 22 21 19 14 11 9 9 7 5 4 2 1 3 2 3 2 5 7 7 8 8 9 8 7 10 4 2 4 6 6 6 8 11 13 13 13 12 12 13
25 31 28 27 25 22 19 16 13 10 7 6 5 6 4 3 3 5 8 9 9 11 12 12 12 12 10 10 9 11 12 12 13 15 14 14 14 16 12 11 10 10 10
22 25 27 29 27 25 23 19 15 11 8 5 3 2 2 7 10 10 11 13 13 15 13 14 16 15 14 14 16 16 18 18 21 19 22 20 19 18 15 12 12 13 10
26 26 26 25 28 27 23 17 13 12 11 7 4 2 6 10 12 13 15 18 19 15 18 18 20 19 19 19 20 17 20 25 26 28 29 27 24 23 16 16 16 19 17
32 29 24 23 24 23 18 16 15 13 10 7 5 5 6 9 13 16 15 17 18 22 22 19 21 20 23 23 24 20 20 19 26 25 28 10 14 19 18 18 21 20 27
33 31 28 29 25 27 24 21 18 18 15 14 12 10 11 12 15 17 19 21 22 23 23 24 27 28 30 31 32 27 26 26 23 26 27 21 21 22 24 25 27 23 27
35 32 33 28 27 29 27 24 23 21 22 19 18 17 17 18 19 20 21 23 26 27 29 31 31 33 35 36 35 34 34 32 33 33 32 32 33 34 31 30 32 30 28
36 39 34 32 29 30 30 30 27 28 28 26 26 27 26 25 27 27 29 28 26 30 33 36 35 32 35 37 41 42 42 36 36 35 29 35 38 36 37 39 40 36 29
38 33 40 36 34 32 32 33 32 32 34 35 35 37 36 36 36 38 37 36 34 36 39 41 39 41 45 47 46 44 40 39 33 26 29 32 34 37 39 38 30 24 26
34 35 35 33 36 33 30 31 35 39 41 41 45 46 47 46 46 49 49 47 45 46 45 46 47 46 50 52 51 44 41 37 37 29 34 42 40 35 28 35 22 24 22
38 37 37 37 34 32 37 37 39 45 49 52 52 53 55 57 58 59 60 59 56 55 51 49 49 52 53 52 51 49 41 42 39 36 38 42 44 32 32 29 24 22 23
36 34 37 42 42 40 41 42 43 48 53 55 54 58 62 66 68 68 71 69 65 64 59 55 53 55 58 53 50 50 41 36 35 32 36 41 41 35 26 28 24 27 27
43 44 46 44 41 39 38 44 50 53 60 65 64 65 66 67 69 72 69 69 66 67 66 62 58 57 59 51 53 51 19 24 32 33 38 39 37 32 32 29 28 27 29
37 36 34 34 33 36 41 46 50 54 62 65 64 64 64 64 65 64 63 65 67 67 70 67 60 60 58 57 59 63 67 46 26 28 42 42 48 36 37 38 32 33 34
12 15 21 26 30 35 40 44 50 55 61 59 60 61 64 67 69 69 70 69 66 64 66 66 63 62 61 58 69 70 72 63 61 41 40 51 47 48 46 44 44 45 44
8 4 1 5 11 16 21 26 33 40 44 47 50 56 61 66 65 62 62 62 62 65 67 67 63 61 63 73 66 70 70 70 67 67 51 52 57 57 58 54 55 50 48
Wind_Direction_850mb
171 161 154 144 137 127 133 138 131 123 118 119 109 98 97 106 99 99 100 107 98 72 50 48 50 54 60 70 77 78 76 78 73 67 59 68 71 70 95 91 75 89 102
161 158 149 144 140 140 134 147 140 134 136 136 133 120 113 121 110 111 112 105 80 59 40 34 44 59 65 72 76 75 68 64 68 64 57 56 66 70 74 80 83 72 90
159 154 147 145 145 141 143 151 155 145 145 144 146 142 140 141 129 120 112 96 68 42 27 43 38 55 71 77 81 80 69 56 62 59 55 54 58 59 64 68 73 65 64
154 151 142 142 148 152 147 151 158 159 150 146 137 137 144 160 163 160 151 137 22 360 7 38 51 51 81 88 96 92 92 62 51 55 47 50 50 55 57 61 57 54 52
156 152 143 138 148 151 144 150 148 148 147 141 140 138 140 150 164 181 204 245 256 291 21 39 57 66 76 85 96 90 74 81 58 50 43 46 45 50 53 55 54 50 45
158 156 148 141 142 154 155 163 156 147 140 129 121 126 131 142 148 159 165 124 96 156 57 40 65 73 68 76 84 86 70 61 39 43 34 34 35 36 42 48 55 53 45
158 159 158 152 141 146 152 148 144 138 131 122 112 110 118 131 135 135 131 93 87 94 82 65 58 64 58 62 72 77 88 54 15 22 33 23 22 20 18 18 24 32 34
156 158 162 159 151 151 151 142 140 139 133 125 115 105 99 99 100 94 84 61 50 52 57 64 66 65 65 65 69 82 117 291 336 352 7 14 8 2 358 1 360 6 14
161 164 165 164 162 161 151 154 155 150 147 132 121 104 95 83 73 63 54 45 35 31 36 44 52 52 53 54 54 53 51 318 297 332 349 2 357 349 343 338 341 345 345
171 176 172 169 169 168 161 153 134 127 118 124 121 116 107 104 92 57 39 34 29 22 7 6 12 8 1 350 346 29 80 70 339 319 346 357 356 343 328 325 325 328 330
179 185 179 173 170 169 168 168 165 159 150 152 154 161 169 226 243 312 229 286 317 309 306 309 313 307 306 308 307 225 253 272 331 297 333 334 330 329 314 313 316 319 320
189 190 185 179 173 173 175 173 178 188 199 210 230 231 214 216 284 268 280 277 277 283 279 280 281 283 297 297 298 303 293 295 304 297 294 291 303 312 307 312 323 331 334
198 194 184 185 184 187 184 183 185 196 212 221 228 174 324 332 343 320 307 291 280 288 279 271 274 280 277 285 294 286 290 291 292 285 277 276 280 286 287 300 310 316 313
194 190 192 195 197 192 183 176 179 186 181 176 152 31 346 337 335 336 339 331 324 295 272 282 275 266 272 270 282 286 284 284 275 277 275 273 273 274 288 279 285 285 296
203 199 199 200 201 202 194 196 199 201 200 213 242 273 304 317 315 313 319 318 312 323 331 323 307 289 286 293 304 296 300 297 284 279 271 274 260 269 274 280 279 288 283
207 207 209 208 206 211 211 207 217 222 223 231 242 256 272 289 297 302 303 306 308 309 312 309 294 267 268 274 278 283 286 279 290 289 289 274 278 272 266 270 282 282 287
210 214 214 214 215 222 226 227 231 237 240 245 255 261 272 279 282 288 293 298 301 298 297 292 289 275 269 269 272 276 281 277 272 271 274 272 269 268 270 270 274 272 272
218 222 220 221 224 228 234 237 240 244 253 258 259 263 270 274 275 276 280 287 292 287 285 282 282 275 276 277 280 278 279 273 278 271 272 265 266 265 269 267 267 269 268
217 224 225 228 236 240 240 244 250 253 259 262 264 267 271 273 273 273 277 282 282 284 284 282 273 271 275 279 281 281 264 270 287 278 260 263 264 263 270 264 265 259 257
224 231 239 238 244 248 252 256 258 259 261 263 266 270 273 273 274 275 278 279 278 280 284 281 277 269 267 273 276 273 266 277 281 261 261 255 261 260 255 275 258 254 261
227 233 244 248 251 253 259 263 267 271 275 273 273 275 276 278 279 277 278 277 275 275 282 281 275 270 266 270 273 273 263 268 262 256 251 248 256 246 253 256 248 255 260
232 239 244 249 251 254 259 272 274 277 279 278 277 276 275 276 278 278 277 276 274 273 275 279 275 269 264 261 267 267 261 266 255 240 247 243 245 248 247 254 256 261 266
220 228 233 235 239 247 255 259 263 267 273 279 283 286 282 279 279 278 278 276 275 274 275 278 277 269 264 261 258 254 230 237 226 232 238 241 249 238 252 247 258 259 262
228 230 233 241 246 252 259 266 271 275 277 282 286 284 281 278 279 279 277 278 281 279 277 277 276 271 262 257 256 251 245 249 229 214 230 230 230 225 238 252 250 256 257
181 206 228 242 253 259 265 271 276 281 283 288 289 288 289 287 285 284 282 283 282 281 279 276 275 272 263 260 254 250 249 244 245 239 222 227 227 229 235 244 248 246 251
100 100 279 282 276 280 285 290 291 292 294 293 294 291 290 287 286 285 286 286 285 288 284 277 275 272 267 265 258 257 250 248 250 245 238 244 244 249 249 246 247 245 247